Flag for U.S.A. Weather past 2 weeks in Glendale, California, U.S.A.

Now
84 °F

Sunny.


Feels Like: 84 °F
Forecast: 67 / 88 °F
Wind: 9 mph from South

Location: Burbank-Glendale-Pasadena Airport

Current Time: Jul 25, 2014 at 6:23:54 PM

Latest Report: Jul 25, 2014 at 5:53 PM


Visibility: 10 mi

Pressure: 29.82 "Hg

Humidity: 46%

Dew point: 61 °F

Location of GlendaleLocation

Historic Weather in Glendale — Graph

°F

Glendale temperature yesterday

Maximum temperature yesterday: 97 °F (at 3:53 PM)
Minimum temperature yesterday: 67 °F (at 5:53 AM)
Average temperature yesterday: 83 °F

Past Weeks' High & Low Weather Summary

 TemperatureHumidityPressure
High97 °F (Jul 24, 3:53 PM)87% (Jul 19, 5:53 AM)30.03 "Hg (Jul 19, 5:53 AM)
Low62 °F (Jul 18, 4:53 AM)20% (Jul 23, 4:53 PM)29.70 "Hg (Jul 24, 6:53 PM)
Average73 °F61%29.92 "Hg
* Reported Jul 10 4:53 PM — Jul 25 4:53 PM, Glendale, Weather by CustomWeather, © 2014

Note: Actual official high and low records may vary slightly from our data, if they occured in-between our weather recording intervals... More about our weather records

Advertising

Glendale weather history for previous 24 hours

 ConditionsComfort  
Time TempWeatherWind HumidityBarometerVisibility
4:53 PM
Jul 25
85 °FSunny.6 mph43%29.83 "Hg10 mi
3:53 PM85 °FSunny.10 mph43%29.84 "Hg10 mi
2:53 PM87 °FSunny.9 mph42%29.85 "Hg10 mi
1:53 PM88 °FSunny.13 mph42%29.85 "Hg10 mi
12:53 PM88 °FSunny.12 mph40%29.85 "Hg10 mi
11:53 AM86 °FSunny.9 mph43%29.85 "Hg10 mi
10:53 AM83 °FSunny.7 mph44%29.85 "Hg10 mi
9:53 AM78 °FSunny.3 mph54%29.86 "Hg10 mi
8:53 AM72 °FSunny.6 mph73%29.86 "Hg10 mi
7:53 AM70 °FSunny.3 mph76%29.85 "Hg10 mi
6:53 AM69 °FClear.5 mph76%29.84 "Hg10 mi
5:53 AM69 °FClear.No wind70%29.83 "Hg10 mi
4:53 AM69 °FClear.3 mph76%29.83 "Hg10 mi
3:53 AM71 °FClear.7 mph66%29.82 "Hg10 mi
2:53 AM72 °FClear.7 mph57%29.82 "Hg10 mi
1:53 AM73 °FClear.8 mph55%29.81 "Hg10 mi
12:53 AM74 °FClear.9 mph57%29.80 "Hg10 mi
11:53 PM
Jul 24
77 °FClear.9 mph52%29.78 "Hg10 mi
10:53 PM78 °FClear.9 mph50%29.77 "Hg10 mi
9:53 PM80 °FClear.6 mph49%29.75 "Hg10 mi
8:53 PM84 °FSunny.6 mph40%29.73 "Hg10 mi
7:53 PM88 °FSunny.9 mph30%29.71 "Hg10 mi
6:53 PM94 °FSunny.7 mph22%29.70 "Hg10 mi
Weather by CustomWeather, © 2014

See weather overviewHow to use our weather pages